Location: Bruderhein
(53.8035°N, 112.9265°W)
Time: 18:41:41
(UTC+00:00)

Max Valier Satellite - Pass Details

Date: 08 April 2023
Orbit: 445 x 458 km, 97.2° (Epoch: 31 May)

Event Time Altitude Azimuth Distance (km) Brightness Sun altitude
Rises 03:11:34 0° 182° (S) 2,448 ? -8.2°
Reaches altitude 10° 03:13:39 10° 190° (S) 1,585 ? -8.5°
Maximum altitude 03:16:53 40° 262° (W) 683 ? -8.9°
Drops below altitude 10° 03:20:11 10° 334° (NNW) 1,613 ? -9.4°
Sets 03:22:20 0° 342° (NNW) 2,499 ? -9.7°
